TimeMDT,TemperatureF,Dew PointF,Humidity,Sea Level PressureIn,VisibilityMPH,Wind Direction,Wind SpeedMPH,Gust SpeedMPH,PrecipitationIn,Events,Conditions,WindDirDegrees,DateUTC
12:15 AM,75.9,55.8,49,30.04,10.0,SSE,11.5,-,N/A,,Clear,160,2013-06-18 06:15:00
12:35 AM,74.7,55.9,52,30.03,10.0,SSE,9.2,-,N/A,,Clear,150,2013-06-18 06:35:00
12:55 AM,73.2,55.9,55,30.03,10.0,SE,6.9,-,N/A,,Clear,130,2013-06-18 06:55:00
1:15 AM,71.8,55.9,57,30.04,10.0,SE,8.1,-,N/A,,Clear,130,2013-06-18 07:15:00
1:35 AM,72.7,56.3,56,30.04,10.0,SE,9.2,-,N/A,,Clear,140,2013-06-18 07:35:00
1:55 AM,72.5,56.3,57,30.03,10.0,SSE,9.2,-,N/A,,Clear,150,2013-06-18 07:55:00
2:15 AM,72.1,56.3,57,30.03,10.0,South,10.4,-,N/A,,Clear,170,2013-06-18 08:15:00
2:35 AM,72.0,56.3,58,30.03,10.0,SSE,8.1,-,N/A,,Clear,150,2013-06-18 08:35:00
2:55 AM,70.0,56.3,62,30.04,10.0,SSE,5.8,-,N/A,,Clear,160,2013-06-18 08:55:00
3:15 AM,69.4,56.3,63,30.04,10.0,SSE,5.8,-,N/A,,Clear,150,2013-06-18 09:15:00
3:35 AM,69.3,55.9,62,30.04,10.0,SE,6.9,-,N/A,,Clear,130,2013-06-18 09:35:00
3:55 AM,68.9,55.6,62,30.05,10.0,SE,6.9,-,N/A,,Clear,140,2013-06-18 09:55:00
4:15 AM,68.9,55.6,62,30.04,10.0,SE,6.9,-,N/A,,Clear,140,2013-06-18 10:15:00
4:35 AM,68.9,55.4,62,30.05,10.0,SE,8.1,-,N/A,,Clear,140,2013-06-18 10:35:00
4:55 AM,68.9,55.4,62,30.05,10.0,SSE,6.9,-,N/A,,Clear,150,2013-06-18 10:55:00
5:15 AM,68.4,55.4,63,30.06,10.0,SSE,6.9,-,N/A,,Clear,150,2013-06-18 11:15:00
5:35 AM,69.3,54.9,60,30.07,10.0,SE,12.7,-,N/A,,Clear,130,2013-06-18 11:35:00
5:55 AM,70.2,55.2,59,30.08,10.0,SE,10.4,-,N/A,,Clear,140,2013-06-18 11:55:00
6:15 AM,69.8,55.4,60,30.08,10.0,SE,10.4,-,N/A,,Clear,130,2013-06-18 12:15:00
6:35 AM,69.8,55.6,61,30.08,10.0,SE,11.5,-,N/A,,Clear,130,2013-06-18 12:35:00
6:55 AM,70.7,55.4,58,30.09,10.0,ESE,13.8,19.6,N/A,,Clear,120,2013-06-18 12:55:00
7:15 AM,71.6,55.4,57,30.09,10.0,ESE,10.4,-,N/A,,Clear,120,2013-06-18 13:15:00
7:35 AM,72.5,55.4,55,30.10,10.0,SE,11.5,-,N/A,,Clear,140,2013-06-18 13:35:00
7:55 AM,73.4,55.4,53,30.11,10.0,SE,13.8,19.6,N/A,,Clear,130,2013-06-18 13:55:00
8:15 AM,74.7,55.4,51,30.11,10.0,SE,16.1,19.6,N/A,,Clear,130,2013-06-18 14:15:00
8:35 AM,75.4,55.4,50,30.12,10.0,ESE,16.1,21.9,N/A,,Clear,120,2013-06-18 14:35:00
8:55 AM,76.6,55.4,48,30.12,10.0,SE,16.1,-,N/A,,Clear,130,2013-06-18 14:55:00
9:15 AM,77.9,54.9,45,30.13,10.0,ESE,13.8,20.7,N/A,,Clear,110,2013-06-18 15:15:00
9:35 AM,79.0,54.5,43,30.13,10.0,SE,12.7,-,N/A,,Clear,130,2013-06-18 15:35:00
9:55 AM,80.2,54.7,41,30.12,10.0,ESE,13.8,19.6,N/A,,Clear,110,2013-06-18 15:55:00
10:15 AM,81.1,54.7,40,30.12,10.0,ESE,13.8,19.6,N/A,,Clear,120,2013-06-18 16:15:00
10:35 AM,82.4,53.8,37,30.12,10.0,ESE,12.7,19.6,N/A,,Clear,120,2013-06-18 16:35:00
10:55 AM,82.9,53.2,36,30.12,10.0,SE,13.8,19.6,N/A,,Clear,140,2013-06-18 16:55:00
11:15 AM,84.4,53.1,34,30.11,10.0,ESE,10.4,16.1,N/A,,Clear,120,2013-06-18 17:15:00
11:35 AM,86.0,52.7,32,30.11,10.0,SE,13.8,18.4,N/A,,Clear,140,2013-06-18 17:35:00
11:55 AM,86.4,51.4,30,30.10,10.0,SSE,10.4,16.1,N/A,,Clear,150,2013-06-18 17:55:00
12:15 PM,86.0,50.5,29,30.10,10.0,ESE,9.2,-,N/A,,Clear,120,2013-06-18 18:15:00
12:35 PM,88.3,52.0,29,30.09,10.0,SE,9.2,-,N/A,,Clear,140,2013-06-18 18:35:00
12:55 PM,88.9,49.6,26,30.08,10.0,SSE,10.4,16.1,N/A,,Clear,150,2013-06-18 18:55:00
1:15 PM,90.7,50.7,25,30.07,10.0,East,11.5,20.7,N/A,,Clear,100,2013-06-18 19:15:00
1:35 PM,90.9,49.6,24,30.06,10.0,ESE,13.8,20.7,N/A,,Clear,120,2013-06-18 19:35:00
1:55 PM,91.9,48.0,22,30.05,10.0,ESE,11.5,17.3,N/A,,Clear,120,2013-06-18 19:55:00
2:15 PM,92.5,46.6,21,30.05,10.0,SE,11.5,-,N/A,,Clear,130,2013-06-18 20:15:00
2:35 PM,93.4,45.7,19,30.04,10.0,SE,13.8,19.6,N/A,,Clear,130,2013-06-18 20:35:00
2:55 PM,93.4,46.0,20,30.03,10.0,SE,10.4,-,N/A,,Clear,140,2013-06-18 20:55:00
3:15 PM,94.6,42.6,17,30.03,10.0,South,6.9,23.0,N/A,,Clear,170,2013-06-18 21:15:00
3:35 PM,95.7,43.5,17,30.02,10.0,ESE,4.6,-,N/A,,Scattered Clouds,120,2013-06-18 21:35:00
3:55 PM,94.8,43.3,17,30.01,10.0,South,8.1,-,N/A,,Scattered Clouds,190,2013-06-18 21:55:00
4:15 PM,95.7,43.2,16,30.00,10.0,SSW,4.6,-,N/A,,Scattered Clouds,210,2013-06-18 22:15:00
4:35 PM,94.8,43.2,17,29.99,10.0,South,9.2,-,N/A,,Scattered Clouds,170,2013-06-18 22:35:00
4:55 PM,96.1,43.2,16,29.98,10.0,SSE,11.5,17.3,N/A,,Scattered Clouds,160,2013-06-18 22:55:00
5:15 PM,96.1,41.7,15,29.98,10.0,SSE,6.9,16.1,N/A,,Clear,160,2013-06-18 23:15:00
5:35 PM,95.2,41.7,16,29.96,10.0,SE,8.1,-,N/A,,Scattered Clouds,140,2013-06-18 23:35:00
5:55 PM,95.9,39.0,14,29.95,10.0,South,8.1,-,N/A,,Scattered Clouds,190,2013-06-18 23:55:00
6:15 PM,96.8,32.9,11,29.95,10.0,WSW,9.2,24.2,N/A,,Clear,240,2013-06-19 00:15:00
6:35 PM,95.7,32.5,11,29.95,10.0,SSE,3.5,-,N/A,,Clear,150,2013-06-19 00:35:00
6:55 PM,93.6,42.1,17,29.95,10.0,Calm,Calm,-,N/A,,Clear,0,2013-06-19 00:55:00
7:15 PM,93.7,39.6,15,29.95,10.0,ENE,3.5,-,N/A,,Clear,60,2013-06-19 01:15:00
7:35 PM,93.4,37.8,14,29.95,10.0,ESE,3.5,-,N/A,,Clear,120,2013-06-19 01:35:00
7:55 PM,91.6,37.8,15,29.95,10.0,ESE,3.5,-,N/A,,Clear,120,2013-06-19 01:55:00
8:15 PM,89.6,37.4,16,29.94,10.0,ESE,4.6,-,N/A,,Clear,120,2013-06-19 02:15:00
8:35 PM,87.4,38.5,18,29.94,10.0,ESE,5.8,-,N/A,,Clear,120,2013-06-19 02:35:00
8:55 PM,85.8,38.1,18,29.94,10.0,ESE,4.6,-,N/A,,Clear,120,2013-06-19 02:55:00
9:15 PM,85.6,36.1,17,29.94,10.0,SSE,4.6,-,N/A,,Clear,150,2013-06-19 03:15:00
9:35 PM,84.9,32.0,15,29.95,10.0,South,4.6,-,N/A,,Clear,170,2013-06-19 03:35:00
9:55 PM,85.1,31.8,15,29.96,10.0,SSW,4.6,-,N/A,,Clear,200,2013-06-19 03:55:00
10:15 PM,83.1,32.0,16,29.97,10.0,South,4.6,-,N/A,,Clear,190,2013-06-19 04:15:00
10:35 PM,82.8,32.9,17,29.98,10.0,SSW,5.8,-,N/A,,Clear,210,2013-06-19 04:35:00
10:55 PM,81.5,35.6,19,29.98,10.0,SW,6.9,-,N/A,,Clear,220,2013-06-19 04:55:00
11:15 PM,83.3,48.2,29,29.99,10.0,SE,12.7,-,N/A,,Clear,140,2013-06-19 05:15:00
11:35 PM,82.6,48.6,30,29.99,10.0,SE,8.1,-,N/A,,Clear,140,2013-06-19 05:35:00
11:55 PM,81.5,49.5,33,29.99,10.0,SE,6.9,-,N/A,,Clear,140,2013-06-19 05:55:00